{"data":{"norad_id":57814,"intl_designator":"2023-138G","name":"STARLINK-30413","alt_names":[],"object_type":"PAYLOAD","status":"ACTIVE","operator":null,"country":"US","launch_date":"2023-09-09","launch_site_code":"AFETR","launch_vehicle":null,"mission":null,"orbit_class":"UNKNOWN","rcs_meters":null,"size_class":null,"mass_kg":null,"dimensions":null,"purposes":["comms"],"wikipedia_slug":null,"has_3d_model":false,"image_url":null,"decayed_at":null,"tle_current":{"epoch":"2026-09-19T23:00:52.647552Z","epoch_age_seconds":181573,"freshness":"STALE","line1":"1 57814U 23138G   26262.95894268  .00001549  00000+0  65805-4 0  9997","line2":"2 57814  43.0010 217.5378 0001296 274.7709  85.2994 15.27569032168442","mean_motion":15.27569032,"eccentricity":0.0001296,"inclination_deg":43.001,"raan_deg":217.5378,"arg_perigee_deg":274.7709,"mean_anomaly_deg":85.2994,"bstar":6.5805e-5,"rev_number":16844,"period_min":94.267425552261,"perigee_km":482.19272439946,"apogee_km":483.97115234829,"semimajor_km":6861.2189383739,"source":"CELESTRAK","updated_at":"2026-09-21T09:00:33.707763Z"}}}